Location: Codford Saint Peter
(51.1597°N, 2.0531°W)
Time: 13:27:14
(UTC+00:00)

DMSP B5D2-2 - Visible Passes

Search period start: 16 January 2021 00:00
Search period end: 26 January 2021 00:00
Orbit: 790 x 805 km, 98.3° (Epoch: 15 January)

Date Brightness Start Highest point End Pass type
(mag) Time Alt. Az. Time Alt. Az. Time Alt. Az.
16 Jan 6.1 05:18:16 10° ESE 05:22:26 25° ENE 05:26:37 10° N visible
16 Jan 4.1 06:56:31 10° S 07:01:43 64° WSW 07:06:58 10° NNW visible
17 Jan 6.7 04:52:21 10° E 04:55:34 17° NE 04:58:47 10° NNE visible
17 Jan 4.2 06:29:14 10° SSE 06:34:28 80° ENE 06:39:46 10° NNW visible
18 Jan 7.0 04:27:24 10° ENE 04:28:47 11° NE 04:30:11 10° NNE visible
18 Jan 4.9 06:02:16 10° SE 06:07:19 50° ENE 06:12:25 10° N visible
19 Jan 5.7 05:35:39 10° SE 05:40:16 33° ENE 05:44:56 10° N visible
19 Jan 4.4 07:14:47 10° S 07:19:48 46° W 07:24:54 10° NNW visible
20 Jan 6.3 05:09:25 10° ESE 05:13:20 22° ENE 05:17:16 10° N visible
20 Jan 4.1 06:47:14 10° S 06:52:29 75° WSW 06:57:47 10° NNW visible
21 Jan 6.8 04:43:42 10° E 04:46:29 15° NE 04:49:16 10° NNE visible
21 Jan 4.4 06:20:03 10° SSE 06:25:16 69° ENE 06:30:32 10° N visible
22 Jan 5.2 05:53:13 10° SE 05:58:09 44° ENE 06:03:08 10° N visible
23 Jan 6.0 05:26:42 10° ESE 05:31:08 29° ENE 05:35:37 10° N visible
23 Jan 4.3 07:05:25 10° S 07:10:33 54° W 07:15:45 10° NNW visible
24 Jan 6.5 05:00:36 10° E 05:04:14 19° NE 05:07:51 10° N visible
24 Jan 4.1 06:37:59 10° SSE 06:43:15 86° WSW 06:48:35 10° NNW visible
25 Jan 6.9 04:35:09 10° ENE 04:37:25 13° NE 04:39:41 10° NNE visible
25 Jan 4.7 06:10:55 10° SSE 06:16:05 60° ENE 06:21:17 10° N visible
25 Jan 6.5 20:09:16 12° SSW 20:09:16 12° SSW 20:09:34 10° SSW visible
